When you browse on this site, cookies collect data to enhance your experience and personalize the content and advertising you see.
Visit our Privacy Policy to learn more. By continuing to use the site, you agree to this use of cookies and data.
  • In Romania
  • List of Countries
  • For 7 days
  • Water Temperature
  • Satellite Maps
  • Weather Map
  • Weather Widgets
  • user-avatar
    Login

    Hourly Weather Birao

    Today, 19 December, Wednesday

    Time Temperature Precipitation Wind Pressure Humidity
    00:00 +24°C° 0 mm 3 mps 719 mmHg 18%
    01:00 +22°C° 0 mm 3 mps 719 mmHg 18%
    02:00 +22°C° 0 mm 3 mps 719 mmHg 19%
    03:00 +21°C° 0 mm 3 mps 719 mmHg 19%
    04:00 +21°C° 0 mm 4 mps 719 mmHg 19%
    05:00 +21°C° 0 mm 4 mps 719 mmHg 19%
    06:00 +21°C° 0 mm 4 mps 719 mmHg 18%
    07:00 +22°C° 0 mm 5 mps 720 mmHg 17%
    08:00 +22°C° 0 mm 5 mps 720 mmHg 16%
    09:00 +26°C° 0 mm 5 mps 720 mmHg 14%
    10:00 +28°C° 0 mm 5 mps 721 mmHg 12%
    11:00 +32°C° 0 mm 5 mps 721 mmHg 10%
    12:00 +34°C° 0 mm 5 mps 720 mmHg 9%
    13:00 +35°C° 0 mm 5 mps 720 mmHg 8%
    14:00 +37°C° 0 mm 5 mps 719 mmHg 8%
    15:00 +36°C° 0 mm 4 mps 719 mmHg 8%
    16:00 +36°C° 0 mm 4 mps 718 mmHg 8%
    17:00 +36°C° 0 mm 4 mps 718 mmHg 8%
    18:00 +33°C° 0 mm 4 mps 718 mmHg 10%
    19:00 +29°C° 0 mm 3 mps 718 mmHg 12%
    20:00 +27°C° 0 mm 3 mps 718 mmHg 13%
    21:00 +26°C° 0 mm 3 mps 718 mmHg 14%
    22:00 +25°C° 0 mm 3 mps 719 mmHg 14%
    23:00 +25°C° 0 mm 3 mps 719 mmHg 14%

    Tomorrow, 20 December, Thursday

    Time Temperature Precipitation Wind Pressure Humidity
    00:00 +23°C° 0 mm 4 mps 719 mmHg 14%
    01:00 +23°C° 0 mm 4 mps 719 mmHg 14%
    02:00 +22°C° 0 mm 4 mps 719 mmHg 14%
    03:00 +22°C° 0 mm 4 mps 719 mmHg 15%
    04:00 +21°C° 0 mm 4 mps 719 mmHg 16%
    05:00 +20°C° 0 mm 4 mps 719 mmHg 16%
    06:00 +21°C° 0 mm 5 mps 719 mmHg 17%
    07:00 +21°C° 0 mm 6 mps 720 mmHg 17%
    08:00 +21°C° 0 mm 6 mps 720 mmHg 17%
    09:00 +24°C° 0 mm 6 mps 721 mmHg 15%
    10:00 +27°C° 0 mm 6 mps 721 mmHg 14%
    11:00 +30°C° 0 mm 6 mps 721 mmHg 12%
    12:00 +33°C° 0 mm 6 mps 720 mmHg 11%
    13:00 +34°C° 0 mm 5 mps 719 mmHg 11%
    14:00 +36°C° 0 mm 5 mps 719 mmHg 10%
    15:00 +36°C° 0 mm 5 mps 718 mmHg 10%
    16:00 +36°C° 0 mm 4 mps 718 mmHg 10%
    17:00 +35°C° 0 mm 4 mps 717 mmHg 10%
    18:00 +33°C° 0 mm 4 mps 718 mmHg 13%
    19:00 +29°C° 0 mm 3 mps 718 mmHg 15%
    20:00 +26°C° 0 mm 3 mps 718 mmHg 18%
    21:00 +25°C° 0 mm 3 mps 719 mmHg 19%
    22:00 +25°C° 0 mm 3 mps 719 mmHg 20%
    23:00 +24°C° 0 mm 3 mps 719 mmHg 20%

    Day after tomorrow, 21 December, Friday

    Time Temperature Precipitation Wind Pressure Humidity
    00:00 +22°C° 0 mm 4 mps 719 mmHg 20%
    01:00 +22°C° 0 mm 4 mps 719 mmHg 20%
    02:00 +21°C° 0 mm 4 mps 719 mmHg 21%
    03:00 +21°C° 0 mm 4 mps 719 mmHg 21%
    04:00 +20°C° 0 mm 4 mps 719 mmHg 22%
    05:00 +19°C° 0 mm 4 mps 719 mmHg 23%
    06:00 +20°C° 0 mm 5 mps 719 mmHg 23%
    07:00 +20°C° 0 mm 6 mps 720 mmHg 24%
    08:00 +20°C° 0 mm 6 mps 720 mmHg 24%
    09:00 +23°C° 0 mm 6 mps 720 mmHg 21%
    10:00 +26°C° 0 mm 6 mps 721 mmHg 18%
    11:00 +29°C° 0 mm 6 mps 721 mmHg 15%
    12:00 +32°C° 0 mm 6 mps 720 mmHg 14%
    13:00 +34°C° 0 mm 5 mps 719 mmHg 12%
    14:00 +36°C° 0 mm 5 mps 718 mmHg 11%
    15:00 +35°C° 0 mm 5 mps 718 mmHg 11%
    16:00 +35°C° 0 mm 4 mps 717 mmHg 11%
    17:00 +35°C° 0 mm 4 mps 717 mmHg 11%
    18:00 +32°C° 0 mm 4 mps 717 mmHg 13%
    19:00 +28°C° 0 mm 3 mps 717 mmHg 15%
    20:00 +26°C° 0 mm 3 mps 718 mmHg 17%
    21:00 +25°C° 0 mm 3 mps 718 mmHg 18%
    22:00 +24°C° 0 mm 3 mps 718 mmHg 18%
    23:00 +22°C° 0 mm 3 mps 718 mmHg 19%

    22 December, Saturday

    Time Temperature Precipitation Wind Pressure Humidity
    00:00 +22°C° 0 mm 3 mps 718 mmHg 20%
    01:00 +21°C° 0 mm 4 mps 718 mmHg 20%
    02:00 +21°C° 0 mm 4 mps 718 mmHg 20%
    03:00 +20°C° 0 mm 4 mps 718 mmHg 21%
    04:00 +20°C° 0 mm 4 mps 718 mmHg 22%
    05:00 +19°C° 0 mm 4 mps 718 mmHg 22%
    06:00 +19°C° 0 mm 5 mps 719 mmHg 22%
    07:00 +20°C° 0 mm 6 mps 719 mmHg 21%
    08:00 +20°C° 0 mm 6 mps 720 mmHg 21%
    09:00 +23°C° 0 mm 6 mps 720 mmHg 18%
    10:00 +26°C° 0 mm 6 mps 720 mmHg 15%
    11:00 +29°C° 0 mm 6 mps 720 mmHg 13%
    12:00 +32°C° 0 mm 6 mps 719 mmHg 11%
    13:00 +33°C° 0 mm 5 mps 718 mmHg 10%
    14:00 +35°C° 0 mm 5 mps 717 mmHg 9%
    15:00 +35°C° 0 mm 5 mps 717 mmHg 9%
    16:00 +35°C° 0 mm 4 mps 717 mmHg 9%
    17:00 +35°C° 0 mm 4 mps 716 mmHg 9%
    18:00 +31°C° 0 mm 3 mps 717 mmHg 11%
    19:00 +28°C° 0 mm 3 mps 717 mmHg 13%
    20:00 +25°C° 0 mm 3 mps 717 mmHg 15%
    21:00 +24°C° 0 mm 3 mps 717 mmHg 16%
    22:00 +22°C° 0 mm 3 mps 718 mmHg 17%
    23:00 +22°C° 0 mm 3 mps 718 mmHg 18%

    23 December, Sunday

    Time Temperature Precipitation Wind Pressure Humidity
    00:00 +21°C° 0 mm 3 mps 718 mmHg 19%
    01:00 +21°C° 0 mm 3 mps 717 mmHg 19%
    02:00 +20°C° 0 mm 4 mps 717 mmHg 20%
    03:00 +20°C° 0 mm 4 mps 717 mmHg 20%
    04:00 +20°C° 0 mm 4 mps 717 mmHg 20%
    05:00 +19°C° 0 mm 5 mps 718 mmHg 20%
    06:00 +20°C° 0 mm 5 mps 718 mmHg 19%
    07:00 +20°C° 0 mm 6 mps 719 mmHg 19%
    08:00 +20°C° 0 mm 6 mps 719 mmHg 18%
    09:00 +23°C° 0 mm 6 mps 719 mmHg 16%
    10:00 +26°C° 0 mm 6 mps 720 mmHg 13%
    11:00 +29°C° 0 mm 6 mps 720 mmHg 11%
    12:00 +32°C° 0 mm 6 mps 719 mmHg 10%
    13:00 +34°C° 0 mm 5 mps 718 mmHg 9%
    14:00 +36°C° 0 mm 5 mps 717 mmHg 8%
    15:00 +35°C° 0 mm 5 mps 717 mmHg 8%
    16:00 +35°C° 0 mm 4 mps 717 mmHg 8%
    17:00 +35°C° 0 mm 4 mps 716 mmHg 8%
    18:00 +32°C° 0 mm 4 mps 717 mmHg 10%
    19:00 +28°C° 0 mm 3 mps 717 mmHg 12%
    20:00 +25°C° 0 mm 3 mps 717 mmHg 13%
    21:00 +24°C° 0 mm 3 mps 717 mmHg 14%
    22:00 +22°C° 0 mm 3 mps 718 mmHg 15%
    23:00 +22°C° 0 mm 3 mps 718 mmHg 16%

    24 December, Monday

    Time Temperature Precipitation Wind Pressure Humidity
    00:00 +21°C° 0 mm 3 mps 718 mmHg 16%
    01:00 +21°C° 0 mm 4 mps 717 mmHg 17%
    02:00 +21°C° 0 mm 4 mps 717 mmHg 17%
    03:00 +20°C° 0 mm 4 mps 717 mmHg 18%
    04:00 +20°C° 0 mm 5 mps 718 mmHg 18%
    05:00 +20°C° 0 mm 5 mps 718 mmHg 19%
    06:00 +20°C° 0 mm 5 mps 718 mmHg 19%
    07:00 +20°C° 0 mm 6 mps 719 mmHg 20%
    08:00 +21°C° 0 mm 6 mps 719 mmHg 20%
    09:00 +23°C° 0 mm 6 mps 719 mmHg 17%
    10:00 +27°C° 0 mm 6 mps 719 mmHg 15%
    11:00 +30°C° 0 mm 6 mps 720 mmHg 13%
    12:00 +32°C° 0 mm 5 mps 719 mmHg 12%
    13:00 +34°C° 0 mm 5 mps 718 mmHg 11%
    14:00 +36°C° 0 mm 5 mps 717 mmHg 10%
    15:00 +36°C° 0 mm 4 mps 717 mmHg 10%
    16:00 +36°C° 0 mm 4 mps 716 mmHg 10%
    17:00 +36°C° 0 mm 4 mps 716 mmHg 10%
    18:00 +33°C° 0 mm 3 mps 716 mmHg 13%
    19:00 +29°C° 0 mm 3 mps 717 mmHg 15%
    20:00 +26°C° 0 mm 3 mps 717 mmHg 18%
    21:00 +26°C° 0 mm 3 mps 717 mmHg 20%
    22:00 +25°C° 0 mm 3 mps 717 mmHg 21%
    23:00 +24°C° 0 mm 3 mps 717 mmHg 23%
    Show more